STARLINK-31329, 59169

Orbit data source: Space-Track

STARLINK-31329, 59169 is a payload satellite owned by SpaceX/Seattle (US) in LEO that was launched on Mon, 04 Mar 2024 UTC via an FALCON 9 launch vehicle from the Air Force Eastern Test Range (AFETR). Payload-class satellites include a variety of spacecraft equipped with specific instruments for various scientific and technological missions. These include communications satellites like Starlink; space stations such as the ISS; scientific satellites like the Hubble; Earth observation satellites from companies like Planet Labs, Umbra, and HawkEye 360; GPS; miniature CubeSats for education and research; and military/defense satellites.

Loading next visibility...
Identifier
59169, 2024-044T
Orbit
LEO
Country
Flag of USUS
Related business
Manufacturer
SpaceX/Seattle
Mission
Operational Commercial Communications
Bus & Motor
STARLINK V2M, Unknown motor
Mass
730 kg wet, ~700 kg dry
Launch date (UTC)
2024-03-04 (2 years ago)
Launch vehicle
FALCON 9
Launch site
Air Force Eastern Test Range (AFETR)
Object type
Payload
Rocket body
Debris
Shape & HBR
Box + 2 Pan, 17.7 m
Radar Cross Section
33.884 m², Large (>1 m²)

Expand to show TLE details & history
Last TLE update: 2 days ago

TLE from 2 days ago
0 STARLINK-31329
1 59169U 24044T   26171.48121919 -.00001277  00000-0 -36922-4 0  9991
2 59169  43.0021 246.7364 0001552 263.9866  96.0808 15.27562820129288
Epoch: 2026-06-20T11:32Z
TLE epoch observation values (Epoch: 2026-06-20T11:32:57.338Z)
Latitude
-0.00006°
Longitude
164.80221°
Altitude
482.989 km
Speed
7.626 km/s
True Right ascension
16h 26m 56s
True Declination
0° 00' 00"
Sunlit
Object was in full shadow at epoch
Visualization orbit readout
Latitude
Unknown
Longitude
Unknown
Altitude
Unknown
Speed
Unknown
Apparent Right ascension
Unknown
Apparent Declination
Unknown
Sunlit
N/A
Visualization observer readout
Local Sidereal Time
21:30:48
Azimuth
Unknown
Elevation
Unknown
Doppler factor
Unknown
Orbital elements
Apogee altitude
486.111 km
Perigee altitude
483.98 km
Semi-major axis
6,863.182 km
Eccentricity
0.00016
Inclination
43.0021°
RAAN
246.7364°
Arg. of periapsis
263.9866°
True anomaly
96.09848°
Mean anomaly
96.0808°
Eccentric anomaly
96.08964°
Mean motion
3.81729 °/min
Orbital period
94.31 mins
BSTAR
-0.000036922
Loading maneuver chart data...
Computing Atmospheric mass density...
Loading historical data...
Loading historical data...
Loading historical data...
Loading historical data...
Loading historical data...
Loading historical data...
Loading historical data...

Documentation

Showing up to 5 results
|